TIME,DELAY(SENSOR),PRES,OXYGEN,RAWTEMP,T(OPTODE),TCPHASE,FLUOR,BETA(BETA700),BETA(BETA412),BETA(BETA440),CDOM,C(CSC),ED(ED412.40),ED(ED444.00),ED(ED489.70),ED(ED554.30),LU(LU411.80),LU(LU443.40),LU(LU489.60),LU(LU554.10),COMP,TILTX,TILTY,CHECK
1377489401,5809,887.7399902343750000,47.4706382751464840,666.0253906250000000,4.4294052124023440,53.9715309143066400,51,98,87,79,78,15286,2147750930,2147425298,2148014875,2147876233,2147639021,2147052900,2148256274,2147202121,1742,4,13,26785
1377492997,5806,982.6099853515625000,50.5310783386230500,672.0006713867188000,4.2320837974548340,53.6200294494628900,53,99,83,79,79,15283,2147755830,2147423122,2148012571,2147871835,2147643300,2147050989,2148260324,2147201124,3472,4,13,50243
1377496597,5807,989.7500000000000000,50.3705101013183600,673.9500122070312000,4.1676268577575680,53.6712608337402340,52,100,85,78,79,15286,2147751680,2147427794,2148011602,2147874358,2147641901,2147051492,2148259172,2147201709,712,4,13,46712
1377500197,5812,998.5200195312500000,50.7138290405273440,674.9539184570312000,4.1344108581542970,53.6341209411621100,52,97,83,78,79,15285,2147755830,2147426560,2148013750,2147876909,2147643712,2147054345,2148264429,2147194395,3078,4,13,49497
1377503797,5810,1010.0200195312500000,50.4649810791015600,674.1976928710938000,4.1594309806823730,53.6561203002929700,53,99,83,78,78,15282,2147754587,2147425380,2148010779,2147873206,2147643538,2147053357,2148264082,2147196333,3341,4,13,57794
1377507397,5810,1006.6900024414062000,49.7569007873535160,673.5709228515625000,4.1801638603210450,53.7479591369628900,52,101,85,79,78,15280,2147752137,2147422720,2148012480,2147874093,2147645019,2147054528,2148264795,2147196964,39,4,13,43172
1377510997,5807,1003.4400024414062000,50.5670394897460940,674.5607299804688000,4.1474208831787110,53.6522712707519500,54,99,88,78,79,15284,2147755584,2147424877,2148011044,2147872210,2147643419,2147059565,2148261549,2147195044,135,4,13,59030
1377514597,5806,998.2299804687500000,50.4377593994140600,675.6652832031250000,4.1108670234680180,53.6795082092285160,52,103,83,77,78,15281,2147751762,2147422546,2148009846,2147873572,2147640091,2147052699,2148261549,2147195446,3047,4,13,9428
1377518197,5810,1005.1500244140625000,50.6208190917968750,675.8853149414062000,4.1035881042480470,53.6563186645507800,52,97,86,79,80,15281,2147755492,2147427254,2148014473,2147873024,2147641865,2147055634,2148266084,2147198555,1024,4,13,7245
1377521797,5807,1012.6199951171875000,50.6861305236816400,675.8455810546875000,4.1048998832702640,53.6504592895507800,52,98,84,78,79,15286,2147754742,2147428004,2148012333,2147876132,2147643218,2147054089,2148259291,2147195785,3191,3,13,45789
1377525397,5810,1009.2800292968750000,50.3521385192871100,675.3394165039062000,4.1216549873352050,53.6907615661621100,52,97,83,79,80,15284,2147755520,2147424329,2148010825,2147875702,2147642304,2147057636,2148266505,2147194011,3503,4,13,58217
1377528997,5808,1004.1599731445312000,50.3517799377441400,675.7910156250000000,4.1067070960998535,53.6929206848144500,52,97,83,78,79,15281,2147755565,2147426432,2148010578,2147876690,2147641106,2147057179,2148260681,2147194934,167,4,13,60622
1377532597,5808,998.7899780273438000,50.6405105590820300,676.4304809570312000,4.0855388641357420,53.6610298156738300,53,100,84,77,80,15276,2147753206,2147425024,2148008237,2147876114,2147642130,2147058669,2148259264,2147198080,680,4,13,25363
1377536197,5811,999.4799804687500000,50.9079513549804700,677.1685180664062000,4.0611019134521480,53.6363105773925800,51,98,85,78,80,15276,2147755328,2147425837,2148010212,2147873005,2147640393,2147060589,2148265371,2147204278,3426,4,13,36324
1377539797,5809,997.8699951171875000,50.8392105102539060,676.7034912109375000,4.0764999389648440,53.6401596069335940,53,98,87,77,78,15264,2147753993,2147427108,2148014738,2147874669,2147640000,2147060790,2148263954,2147200749,2467,4,13,52762
1377543397,5809,1001.4699707031250000,51.3714790344238300,677.6259765625000000,4.0459499359130860,53.5804595947265600,53,100,86,78,79,15278,2147754569,2147425846,2148013440,2147876169,2147641362,2147050825,2148261778,2147197330,366,4,13,51855
1377546997,5809,1009.3900146484375000,50.8315696716308600,676.9686279296875000,4.0677242279052730,53.6465911865234400,52,98,83,79,78,15272,2147756233,2147424585,2148011977,2147875072,2147640411,2147062061,2148261824,2147195593,412,3,13,9756
1377550597,5809,1019.0900268554688000,50.4241981506347660,675.2675170898438000,4.1240367889404300,53.6803016662597660,51,100,84,80,78,15271,2147750747,2147426861,2148011593,2147872969,2147644754,2147054098,2148260214,2147200932,3358,4,13,46839
1377554197,5806,1022.1099853515625000,49.8002204895019500,674.4265747070312000,4.1518568992614750,53.7521209716796900,53,99,83,78,79,15272,2147752338,2147424064,2148011968,2147875355,2147642221,2147053001,2148265033,2147198381,153,4,13,28531
1377557797,5810,1015.0100097656250000,49.3928985595703100,674.3305053710938000,4.1550388336181640,53.8119316101074200,53,98,86,78,80,15273,2147754358,2147424064,2148013549,2147872886,2147640155,2147059236,2148261321,2147200950,144,4,13,31212
1377561397,5808,1014.7100219726562000,49.4993896484375000,674.3507080078125000,4.1543688774108890,53.7939186096191400,52,97,86,77,79,15269,2147757065,2147425307,2148011785,2147876726,2147639433,2147055195,2148261641,2147199981,3159,4,13,58610
1377564997,5811,1013.4000244140625000,49.9281997680664060,675.9719238281250000,4.1007189750671390,53.7541007995605500,53,98,86,78,80,15270,2147750765,2147424201,2148013970,2147874148,2147643556,2147051684,2148258560,2147200164,3565,4,13,39787
1377568597,5807,1017.4400024414062000,50.5008316040039060,675.8057861328125000,4.1062178611755370,53.6761398315429700,52,96,84,81,79,15270,2147753874,2147426541,2148013513,2147872886,2147642358,2147051867,2148261686,2147199268,3483,4,13,284
1377572197,5809,1010.0100097656250000,50.1470985412597660,676.2551879882812000,4.0913410186767580,53.7313117980957000,52,98,86,79,79,15271,2147754377,2147425974,2148011254,2147875446,2147642541,2147056265,2148265846,2147197824,589,4,13,24422
1377575797,5810,996.2000122070312000,51.0927505493164060,678.3372192382812000,4.0223941802978520,53.6246109008789060,52,101,84,78,79,15271,2147754185,2147425846,2148009828,2147873206,2147643702,2147053156,2148267254,2147196416,156,4,13,22569
1377579397,5805,1004.1799926757812000,51.1859283447265600,678.1325073242188000,4.0291728973388670,53.6118011474609400,53,98,84,78,79,15272,2147751177,2147425965,2148012882,2147874212,2147643209,2147055442,2148264146,2147200859,505,4,13,13304
1377582997,5810,1015.2899780273438000,50.8918190002441400,677.2153930664062000,4.0595488548278810,53.6409111022949200,52,99,86,79,79,15272,2147758217,2147424356,2148012278,2147875693,2147641170,2147055835,2148265444,2147199963,603,4,13,44340
1377586597,5812,1001.9199829101562000,51.0236816406250000,678.2188720703125000,4.0263099670410160,53.6344718933105500,53,98,86,78,80,15271,2147754294,2147425654,2148012443,2147875008,2147640996,2147055478,2148259373,2147198070,29,4,13,30096
1377590197,5808,1011.5999755859375000,50.7842216491699200,678.0584716796875000,4.0316262245178220,53.6633605957031250,52,97,84,78,80,15272,2147758573,2147425590,2148013394,2147876288,2147643456,2147055040,2148266331,2147198884,494,4,13,38822
1377593797,5811,1015.1900024414062000,51.0612182617187500,677.8460083007812000,4.0386638641357420,53.6214103698730500,52,97,81,79,79,15272,2147755675,2147426944,2148013339,2147875053,2147643894,2147057371,2148258834,2147198253,61,4,13,57462
1377597397,5809,1013.7299804687500000,50.4696617126464840,677.1710815429688000,4.0610160827636720,53.6991882324218750,52,97,84,79,79,15271,2147755556,2147426797,2148012086,2147873600,2147641078,2147050989,2148266715,2147196562,592,4,13,40541
1377600997,5807,1012.7999877929688000,50.4577407836914060,677.0748291015625000,4.0642070770263670,53.6953506469726560,51,98,87,80,79,15272,2147755254,2147427666,2148013046,2147872630,2147643684,2147056694,2148261522,2147199241,182,4,13,7637
1377604597,5809,1018.8099975585938000,50.1409111022949200,676.5994873046875000,4.0799450874328610,53.7310905456543000,52,97,83,79,78,15268,2147754093,2147425554,2148010614,2147871259,2147643318,2147054921,2148265152,2147197147,3174,4,13,36108
1377608197,5806,1019.8200073242188000,50.2217788696289060,676.1152954101562000,4.0959739685058590,53.7172889709472660,53,97,81,78,80,15272,2147754614,2147425764,2148015725,2147875492,2147638518,2147059081,2148264265,2147195584,166,4,13,2420
1377611797,5807,1022.3400268554688000,50.5871391296386700,676.4683837890625000,4.0842838287353520,53.6729812622070300,52,101,89,79,79,15269,2147758756,2147426038,2148012873,2147871104,2147642971,2147057920,2148263981,2147197120,3418,4,13,59338
1377615397,5809,1015.3900146484375000,50.1934890747070300,676.1356811523438000,4.0952968597412110,53.7224617004394500,52,97,86,79,79,15235,2147753462,2147425216,2148013467,2147873307,2147639296,2147056237,2148262656,2147200969,84,4,13,58345
1377618997,5810,1011.1799926757812000,50.0421409606933600,677.0291137695312000,4.0657181739807130,53.7498512268066400,52,98,88,79,79,15233,2147754541,2147426358,2148015360,2147871680,2147640630,2147059264,2148263305,2147200466,848,4,13,62774
1377622597,5811,1014.7500000000000000,51.1184806823730500,678.1213989257812000,4.0295410156250000,53.6182098388671900,52,116,85,77,80,15235,2147758326,2147424877,2148014838,2147876169,2147643410,2147054180,2148262838,2147197010,3205,4,13,50404
1377626197,5808,1018.1199951171875000,51.4049301147460940,677.6087036132812000,4.0465240478515625,53.5725784301757800,51,99,86,78,78,15237,2147758820,2147424713,2148013659,2147874660,2147644169,2147058304,2148263286,2147199305,2945,4,13,36610
1377629797,5811,1017.0900268554688000,50.3049011230468750,676.5540161132812000,4.0814499855041500,53.7121009826660160,53,97,84,78,79,15234,2147755282,2147426221,2148011154,2147874925,2147642258,2147056896,2148261001,2147197997,3173,4,13,17298
1377633355,5806,1022.7899780273438000,50.3960418701171900,675.3466796875000000,4.1214141845703125,53.6853294372558600,51,99,84,78,79,15263,2147751606,2147424100,2148014482,2147877220,2147639734,2147053412,2148261522,2147197403,223,4,13,60515
